DELTA 1 DEB, 7131

Orbit data source: Space-Track

DELTA 1 DEB, 7131 is space debris in SSO originally from a launch on Tue, 06 Nov 1973 UTC launched from the Air Force Western Test Range (AFWTR). Debris objects in space refer to the collection of defunct objects orbiting the Earth. Examples of debris include non-operational satellites, rocket bodies, and fragments generated from explosions, collisions, or faulty payload assembly.

Loading next visibility...
Identifier
7131, 1973-086CV
Orbit
SSO
Country
Flag of USUS
Related business
Manufacturer
Unknown
Mission
Spacecraft
Bus & Motor
Unknown
Mass
Unknown
Launch date (UTC)
1973-11-06 (52 years ago)
Launch vehicle
Unknown
Launch site
Air Force Western Test Range (AFWTR)
Object type
Payload
Rocket body
Debris
Shape & HBR
Unknown shape, 0.1 m
Radar Cross Section
Small (<0.1 m²)

Expand to show TLE details & history
Last TLE update: 16 hours ago

TLE from 16 hours ago
0 DELTA 1 DEB
1 07131U 73086CV  26034.30798354  .00000284  00000-0  31990-2 0  9998
2 07131 101.9035 343.5353 0165744 148.0188   9.0949 12.15045420309160
Epoch: 2026-02-03T07:23Z
TLE epoch observation values (Epoch: 2026-02-03T07:23:29.777Z)
Latitude
22.08416°
Longitude
-75.94735°
Altitude
1,485.767 km
Speed
7.181 km/s
True Right ascension
11h 13m 40s
True Declination
21° 58' 32"
Sunlit
Object was in full shadow at epoch
Visualization orbit readout
Latitude
Unknown
Longitude
Unknown
Altitude
Unknown
Speed
Unknown
Apparent Right ascension
Unknown
Apparent Declination
Unknown
Sunlit
N/A
Visualization observer readout
Local Sidereal Time
01:46:19
Azimuth
Unknown
Elevation
Unknown
Doppler factor
Unknown
Orbital elements
Apogee altitude
1,744.224 km
Perigee altitude
1,479.367 km
Semi-major axis
7,989.933 km
Eccentricity
0.01657
Inclination
101.9035°
RAAN
343.5353°
Arg. of periapsis
148.0188°
True anomaly
9.40138°
Mean anomaly
9.0949°
Eccentric anomaly
9.24751°
Mean motion
3.03898 °/min
Orbital period
118.46 mins
BSTAR
0.003199
Loading maneuver chart data...
Computing Atmospheric mass density...
Loading historical data...
Loading historical data...
Loading historical data...
Loading historical data...
Loading historical data...
Loading historical data...
Loading historical data...

Documentation

Showing up to 5 results
|